Date String (YYYY-MM-DD hh:mm:ss) UTC,Instrument flags,Ambient pressure (hPa),Sample flow (lpm),Bypass flow (lpm),Sample temperature (°C),Ambient temperature (°C),ASC tube jacket temperature (°C),LED temperature (°C),Box temperature (°C),Sample RH (%),Span deviation,Mass concentration (μg/m³),Mass concentration (μg/m³),Mass concentration (μg/m³)
DateTimeUTC,F1_M11,P_M11,Q1_M11,Q2_M11,T1_M11,T2_M11,T3_M11,T4_M11,T5_M11,U1_M11,ZSPAN_M11,X0_M11,X2_M11,X1_M11
2022-09-14 09:00:00,,0821.9,5.01,0.00,30.4,28.8,00.0,39.2,32.1,17.0,0001.6,0013.95,0007.25,0006.55
2022-09-14 09:01:00,,0822.0,4.99,0.00,30.4,28.9,00.0,39.2,32.1,16.9,0002.4,0014.30,0007.26,0006.54
2022-09-14 09:02:00,,0822.0,5.02,0.00,30.4,28.9,00.0,39.2,32.2,16.8,0002.6,0014.27,0007.25,0006.55
2022-09-14 09:03:00,,0822.0,4.99,0.00,30.4,29.0,00.0,39.2,32.2,16.6,0002.3,0012.94,0007.27,0006.57
2022-09-14 09:04:00,,0821.9,5.01,0.00,30.4,29.1,00.0,39.2,32.2,16.6,0002.0,0013.61,0007.31,0006.58
2022-09-14 09:05:00,,0822.0,5.00,0.00,30.4,29.1,00.0,39.2,32.2,16.3,0001.9,0014.67,0007.36,0006.60
2022-09-14 09:06:00,,0822.0,5.00,0.00,30.5,29.1,00.0,39.2,32.3,16.2,0001.6,0014.82,0007.44,0006.66
2022-09-14 09:07:00,,0821.9,5.00,0.00,30.5,29.2,00.0,39.2,32.3,16.1,0001.6,0014.87,0007.55,0006.77
2022-09-14 09:08:00,,0821.9,5.01,0.00,30.5,29.2,00.0,39.2,32.3,15.9,0001.7,0015.14,0007.69,0006.93
2022-09-14 09:09:00,,0821.9,5.00,0.00,30.5,29.2,00.0,39.2,32.3,16.0,0001.5,0015.13,0007.80,0007.07
2022-09-14 09:10:00,,0821.9,4.99,0.00,30.5,29.3,00.0,39.2,32.4,15.9,0001.7,0014.93,0007.94,0007.22
2022-09-14 09:11:00,,0821.9,5.01,0.00,30.6,29.3,00.0,39.3,32.4,15.9,0001.8,0015.16,0008.15,0007.42
2022-09-14 09:12:00,,0821.9,5.00,0.00,30.6,29.3,00.0,39.3,32.4,16.0,0001.6,0016.29,0008.30,0007.56
2022-09-14 09:13:00,,0822.0,4.99,0.00,30.6,29.3,00.0,39.3,32.4,16.0,0001.8,0016.76,0008.46,0007.70
2022-09-14 09:14:00,,0822.0,5.01,0.00,30.6,29.4,00.0,39.3,32.4,16.0,0001.9,0017.62,0008.57,0007.80
2022-09-14 09:15:00,,0822.1,5.00,0.00,30.6,29.4,00.0,39.3,32.4,16.0,0002.3,0017.72,0008.69,0007.89
2022-09-14 09:16:00,,0822.1,4.99,0.00,30.7,29.4,00.0,39.4,32.5,16.0,0002.6,0017.07,0008.78,0007.99
2022-09-14 09:17:00,,0822.1,5.00,0.00,30.7,29.4,00.0,39.4,32.5,16.0,0002.8,0016.90,0008.83,0008.05
2022-09-14 09:18:00,,0822.2,5.01,0.00,30.7,29.4,00.0,39.4,32.5,16.0,0002.9,0016.68,0008.90,0008.12
2022-09-14 09:19:00,,0822.2,4.99,0.00,30.7,29.4,00.0,39.4,32.5,16.0,0002.8,0016.90,0008.91,0008.14
2022-09-14 09:20:00,,0822.2,5.01,0.00,30.7,28.2,00.0,39.4,32.5,16.0,0003.2,0017.18,0008.94,0008.16
2022-09-14 09:21:00,,0822.1,4.99,0.00,30.7,27.3,00.0,39.3,32.4,16.0,0003.3,0017.76,0008.98,0008.17
2022-09-14 09:22:00,,0822.0,5.00,0.00,30.6,27.2,00.0,39.3,32.2,16.0,0003.0,0018.61,0008.96,0008.15
2022-09-14 09:23:00,,0821.9,4.99,0.00,30.5,27.5,00.0,39.2,32.1,16.1,0002.9,0017.89,0008.95,0008.13
2022-09-14 09:24:00,,0822.1,4.99,0.00,30.4,27.8,00.0,39.2,32.0,16.2,0002.8,0017.44,0008.95,0008.11
2022-09-14 09:25:00,,0821.8,5.00,0.00,30.4,28.1,00.0,39.2,32.0,16.2,0002.9,0017.14,0008.95,0008.10
2022-09-14 09:26:00,,0821.8,5.00,0.00,30.4,28.3,00.0,39.2,32.1,16.2,0002.7,0017.12,0008.93,0008.10
2022-09-14 09:27:00,,0821.8,5.00,0.00,30.4,28.5,00.0,39.2,32.1,16.4,0002.4,0016.98,0008.96,0008.11
2022-09-14 09:28:00,,0821.8,5.00,0.00,30.4,28.6,00.0,39.2,32.1,16.2,0001.9,0017.14,0009.05,0008.15
2022-09-14 09:29:00,,0821.9,5.00,0.00,30.4,28.7,00.0,39.2,32.1,16.3,0002.1,0017.30,0009.07,0008.15
2022-09-14 09:30:00,,0822.3,5.00,0.00,30.4,28.8,00.0,39.2,32.1,16.2,0002.0,0017.02,0009.12,0008.18
2022-09-14 09:31:00,,0822.0,5.01,0.00,30.4,28.9,00.0,39.2,32.2,16.2,0001.8,0017.05,0009.17,0008.20
2022-09-14 09:32:00,,0822.1,5.00,0.00,30.4,28.9,00.0,39.2,32.2,16.3,0001.3,0017.32,0009.20,0008.23
2022-09-14 09:33:00,,0821.9,4.99,0.00,30.4,29.0,00.0,39.2,32.2,16.1,0001.5,0016.77,0009.23,0008.27
2022-09-14 09:34:00,,0822.0,5.01,0.00,30.4,29.0,00.0,39.2,32.2,16.1,0001.1,0016.41,0009.28,0008.31
2022-09-14 09:35:00,,0821.9,5.00,0.00,30.4,29.0,00.0,39.2,32.2,16.1,0000.9,0016.36,0009.33,0008.35
2022-09-14 09:36:00,,0821.8,5.00,0.00,30.5,29.1,00.0,39.2,32.3,16.3,0001.1,0016.24,0009.34,0008.35
2022-09-14 09:37:00,,0821.8,5.01,0.00,30.5,29.1,00.0,39.2,32.3,16.8,0001.3,0016.26,0009.25,0008.25
2022-09-14 09:38:00,,0821.8,4.99,0.00,30.5,29.1,00.0,39.2,32.3,16.6,0001.0,0016.00,0009.15,0008.16
2022-09-14 09:39:00,,0821.8,5.01,0.00,30.5,29.1,00.0,39.3,32.3,16.8,0000.8,0015.57,0008.93,0008.01
2022-09-14 09:40:00,,0821.7,4.99,0.00,30.5,29.1,00.0,39.3,32.3,16.9,0000.5,0015.23,0008.71,0007.82
2022-09-14 09:41:00,,0821.8,5.01,0.00,30.5,29.2,00.0,39.3,32.3,17.0,0000.3,0016.22,0008.51,0007.62
2022-09-14 09:42:00,,0821.8,4.99,0.00,30.5,29.2,00.0,39.3,32.3,16.8,0000.1,0015.94,0008.26,0007.40
2022-09-14 09:43:00,,0822.0,5.01,0.00,30.5,29.2,00.0,39.3,32.3,16.5,0000.1,0015.15,0008.08,0007.20
2022-09-14 09:44:00,,0822.0,4.99,0.00,30.6,29.2,00.0,39.3,32.4,16.6,0000.3,0014.65,0007.84,0006.99
2022-09-14 09:45:00,,0822.1,5.01,0.00,30.6,29.2,00.0,39.3,32.4,17.0,0000.4,0014.37,0007.58,0006.78
2022-09-14 09:46:00,,0822.1,4.99,0.00,30.6,29.3,00.0,39.3,32.4,17.9,0000.6,0014.54,0007.35,0006.60
2022-09-14 09:47:00,,0822.1,5.01,0.00,30.6,29.3,00.0,39.3,32.4,18.3,0001.1,0014.46,0007.18,0006.45
2022-09-14 09:48:00,,0822.1,4.99,0.00,30.6,29.3,00.0,39.3,32.4,18.4,0000.7,0013.94,0007.19,0006.44
2022-09-14 09:49:00,,0822.1,5.01,0.00,30.6,29.3,00.0,39.4,32.4,19.4,0001.1,0014.46,0007.13,0006.40
2022-09-14 09:50:00,,0822.2,4.99,0.00,30.6,29.3,00.0,39.4,32.4,19.3,0001.5,0015.04,0007.10,0006.35
2022-09-14 09:51:00,,0822.2,5.00,0.00,30.7,29.3,00.0,39.4,32.5,19.0,0001.6,0015.44,0007.06,0006.33
2022-09-14 09:52:00,,0822.2,5.02,0.00,30.7,29.3,00.0,39.4,32.5,18.9,0001.5,0014.27,0007.01,0006.31
2022-09-14 09:53:00,,0822.2,4.99,0.00,30.7,29.4,00.0,39.4,32.5,19.2,0001.5,0014.24,0006.98,0006.31
2022-09-14 09:54:00,,0822.3,5.00,0.00,30.7,29.0,00.0,39.4,32.5,19.3,0001.7,0014.11,0006.93,0006.29
2022-09-14 09:55:00,,0822.2,5.01,0.00,30.7,27.6,00.0,39.4,32.4,18.5,0001.6,0014.13,0006.98,0006.34
2022-09-14 09:56:00,,0822.1,5.00,0.00,30.6,27.1,00.0,39.3,32.3,18.5,0001.8,0014.49,0007.09,0006.43
2022-09-14 09:57:00,,0822.1,5.01,0.00,30.5,27.2,00.0,39.3,32.1,18.4,0002.0,0014.54,0007.17,0006.50
2022-09-14 09:58:00,,0822.1,4.99,0.00,30.4,27.4,00.0,39.2,32.0,18.2,0001.6,0014.98,0007.26,0006.60
2022-09-14 09:59:00,,0822.0,5.00,0.00,30.4,27.7,00.0,39.2,32.0,18.0,0001.6,0014.81,0007.28,0006.68
